Location: ???????
(55.4362°N, 38.1183°E)
Time: 03:43:24
(UTC+00:00)

SJ 16-02 - Pass Details

Date: 17 June 2021
Orbit: 606 x 616 km, 75.0° (Epoch: 26 July)

Event Time Altitude Azimuth Distance (km) Brightness Sun altitude
Rises 19:07:42 0° 337° (NNW) 2,882 7.1 -5.6°
Reaches altitude 10° 19:11:09 10° 6° (N) 1,973 4.8 -5.9°
Maximum altitude 19:13:14 13° 34° (NE) 1,776 4.1 -6.0°
Drops below altitude 10° 19:15:18 10° 63° (ENE) 1,967 3.9 -6.2°
Sets 19:18:43 0° 91° (E) 2,867 4.5 -6.4°
